Location: Bartlow
(52.0833°N, 0.3167°E)
Time: 11:28:05
(UTC+00:00)

CZ-4C R/B - Pass Details

Date: 26 September 2023
Orbit: 543 x 1453 km, 63.4° (Epoch: 28 November)

Event Time Altitude Azimuth Distance (km) Brightness Sun altitude
Rises 00:05:52 0° 314° (NW) 3,709 6.0 -38.9°
Reaches altitude 10° 00:08:15 10° 312° (NW) 2,879 5.3 -38.8°
Enters shadow 00:11:13 29° 306° (NW) 1,935 4.2 -38.8°
